"Pseudo-MPEC" for C1FJV72

Created 2019 Nov 9 8:07:11 UT using Find_Orb

Click here for an explanation of pseudo-MPECs

 
 Astrometry: 
     C1FJV72  C2019 11 08.34750 04 25 03.30 +06 40 02.1    ~B897       VNEOCPG96
     C1FJV72  C2019 11 08.35316 04 24 58.20 +06 43 10.9    ~B897 20.1 GVNEOCPG96
     C1FJV72  C2019 11 08.35882 04 24 53.24 +06 46 15.2    ~B897 20.3 GVNEOCPG96
     C1FJV72  C2019 11 08.36449 04 24 48.06 +06 49 26.4    ~B897 19.8 GVNEOCPG96
     C1FJV72  C2019 11 08.38703 04 24 27.76 +07 01 58.1    ~B89b 19.6 GVNEOCPG96
     C1FJV72  C2019 11 08.38726 04 24 27.53 +07 02 05.8    ~B89b 19.7 GVNEOCPG96
     C1FJV72  C2019 11 08.38749 04 24 27.33 +07 02 13.7    ~B89b 19.6 GVNEOCPG96
     C1FJV72  C2019 11 08.38772 04 24 27.12 +07 02 21.0    ~B89b 19.8 GVNEOCPG96
     C1FJV72 KC2019 11 09.05957604 14 08.78 +13 47 23.6    ~B927 19.4 GVNEOCPJ95
     C1FJV72 KC2019 11 09.06316904 14 04.88 +13 49 43.8    ~B927 19.5 GVNEOCPJ95
     C1FJV72 KC2019 11 09.07145204 13 55.95 +13 55 07.0    ~B927 19.2 GVNEOCPJ95
     C1FJV72 KC2019 11 09.07565404 13 51.39 +13 57 51.7    ~B927 19.9 GVNEOCPJ95
     C1FJV72  C2019 11 09.19217104 12 01.35 +15 15 30.1    ~B95M 19.6 GVNEOCPH01
     C1FJV72  C2019 11 09.19634804 11 56.71 +15 18 18.2    ~B95M 20.2 GVNEOCPH01
     C1FJV72  C2019 11 09.20903304 11 42.52 +15 26 51.4    ~B95M 19.5 GVNEOCPH01
     C1FJV72  C2019 11 09.21461804 11 36.26 +15 30 37.3    ~B95M 19.4 GVNEOCPH01
     C1FJV72  C2019 11 09.22253 04 11 28.06 +15 36 01.4    ~B95q 19.3 GVNEOCPG96
     C1FJV72  C2019 11 09.22305 04 11 27.47 +15 36 22.3    ~B95q 19.5 GVNEOCPG96
     C1FJV72  C2019 11 09.22357 04 11 26.88 +15 36 43.4    ~B95q 19.9 GVNEOCPG96
     C1FJV72  C2019 11 09.22409 04 11 26.27 +15 37 04.7    ~B95q 19.1 GVNEOCPG96
     C1FJV72 KC2019 11 09Q1Astrometry5dAODu.h$7tredacted;q'click+WHtMv0)3nwk;H36
     C1FJV72 KC2019 11 09OQmhereDforZ7shexplanationZwYTH`9Zc4a_*qU3*s'(ew1gN$H36

Station data:
(G96) Mt. Lemmon Survey  (N32.442754 W110.788720)  US/Arizona.  Observers T.
   A. Pruyne, B. M. Africano, E. J. Christensen, G. A. Farneth, D. C. Fuls,
   A. R. Gibbs, A. D. Grauer, H. Gröller, J. A. Johnson, R. A. Kowalski, S.
   M. Larson, G. J. Leonard, D. Rankin, R. L. Seaman, F. C. Shelly. 1.5-m
   reflector + 10K CCD.
(H01) Magdalena Ridge Observatory, Socorro  (N33.984833 W107.189333)  US/New
   Mexico.  Observers W. H. Ryan, E. V. Ryan. Measurer W. H. Ryan. 2.4-m
   f/8.9 reflector + CCD.
(H36) Sandlot Observatory, Scranton  (N38.797693 W95.706400)  US/Kansas.
   Observer G. Hug. 0.56-m reflector + CCD.
(J95) Great Shefford  (N51.474969 W1.447003)  UK.  Observer P. Birtwhistle.
   0.40-m f/6.0 Schmidt-Cassegrain + CCD.

Orbital elements:  C1FJV72
   Perihelion 2020 Jan 18.115583 +/- 0.124 TT =  2:46:26 (JD 2458866.615583)
Epoch 2019 Nov  9.0 TT = JDT 2458796.5   Earth MOID: 0.0357   AutoNEOCP
M 299.75820982 +/- 0.16             (J2000 ecliptic)
n   0.85917833 +/- 0.000872         Peri.   78.46980 +/- 0.14
a   1.09584005 +/- 0.000741         Node    47.27660 +/- 0.0009
e   0.1725834 +/- 0.000415          Incl.   30.11937 +/- 0.046
P   1.15/419.00d           H 25.8   G  0.15   U  8.0  
q 0.90671618 +/- 0.000209    Q 1.28496392 +/- 0.00131
From 22 observations 2019 Nov. 8-9 (22.7 hr); mean residual 0".55
Residuals in arcseconds: 
191108 G96  .18-  .64+    191109 J95  .19+  .16+    191109 G96  .25+  .05-    
191108 G96  .68-  1.6+    191109 J95  .16-  .14+    191109 G96  .21+  .25-    
191108 G96  1.0+  2.2-    191109 J95  .15+  .26-    191109 G96  .17+  .25-    
191108 G96  .25-  .37+    191109 J95  .02-  .09+    191109 G96  .16-  .06-    
191108 G96  .07+  .20-    191109 H01  .19+  .01-    191109 H36  1.4-  .62+    
191108 G96  .26-  .19-    191109 H01  .19+  .49-    191109 H36  .37+  .35-    
191108 G96  .14-  .01+    191109 H01  .08-  .04-    
191108 G96  .18-  .39-    191109 H01  .17+  .25-    

Ephemerides (geocentric):
Date (UTC) HH   RA              Dec         delta   r     elong  mag " sig PA
---- -- -- --  -------------   -----------  ------ ------ -----  --- ---- ---
2019 11 09 08  04 09 17.828   +16 52 35.51  .03990 1.0287 162.4 19.7 .155 163
2019 11 09 09  04 08 31.173   +17 21 18.89  .03973 1.0286 162.6 19.7 .146 161
2019 11 09 10  04 07 43.887   +17 50 15.61  .03958 1.0284 162.8 19.7 .137 159
2019 11 09 11  04 06 55.956   +18 19 25.50  .03942 1.0283 163.0 19.7 .126 156
2019 11 09 12  04 06 07.370   +18 48 48.38  .03927 1.0282 163.2 19.7 .115 153
2019 11 09 13  04 05 18.117   +19 18 24.07  .03912 1.0281 163.4 19.7 .103 150
2019 11 09 14  04 04 28.184   +19 48 12.37  .03897 1.0280 163.6 19.6 .091 145
2019 11 09 15  04 03 37.558   +20 18 13.06  .03883 1.0279 163.8 19.6 .078 138
2019 11 09 16  04 02 46.228   +20 48 25.91  .03869 1.0277 163.9 19.6 .066 129
2019 11 09 17  04 01 54.179   +21 18 50.69  .03855 1.0276 164.0 19.6 .056 116
2019 11 09 18  04 01 01.399   +21 49 27.13  .03842 1.0275 164.2 19.6 .049  96
2019 11 09 19  04 00 07.873   +22 20 14.97  .03829 1.0274 164.2 19.6 .049  73
2019 11 09 20  03 59 13.588   +22 51 13.92  .03817 1.0273 164.3 19.6 .057  51
2019 11 09 21  03 58 18.530   +23 22 23.68  .03805 1.0271 164.4 19.6 .071  36
2019 11 09 22  03 57 22.684   +23 53 43.95  .03793 1.0270 164.4 19.6 .089  25
2019 11 09 23  03 56 26.035   +24 25 14.39  .03782 1.0269 164.4 19.5 .110  18
2019 11 10 00  03 55 28.568   +24 56 54.66  .03771 1.0268 164.4 19.5 .133  13
2019 11 10 01  03 54 30.268   +25 28 44.40  .03760 1.0267 164.4 19.5 .158   9
2019 11 10 02  03 53 31.118   +26 00 43.26  .03750 1.0266 164.3 19.5 .185   6
2019 11 10 03  03 52 31.103   +26 32 50.84  .03740 1.0264 164.3 19.5 .213   3
2019 11 10 04  03 51 30.206   +27 05 06.74  .03731 1.0263 164.2 19.5 .242   1
2019 11 10 05  03 50 28.411   +27 37 30.55  .03722 1.0262 164.1 19.5 .273   0
2019 11 10 06  03 49 25.699   +28 10 01.86  .03713 1.0261 163.9 19.5 .304 178
2019 11 10 07  03 48 22.055   +28 42 40.21  .03705 1.0260 163.8 19.5 .337 177
2019 11 10 08  03 47 17.459   +29 15 25.17  .03697 1.0259 163.6 19.5 .372 176
2019 11 10 09  03 46 11.893   +29 48 16.26  .03689 1.0257 163.4 19.5 .407 175
2019 11 10 10  03 45 05.340   +30 21 13.00  .03682 1.0256 163.2 19.5 .443 174
2019 11 10 11  03 43 57.779   +30 54 14.91  .03676 1.0255 162.9 19.5 .481 173
2019 11 10 12  03 42 49.192   +31 27 21.50  .03669 1.0254 162.7 19.5 .520 172
2019 11 10 13  03 41 39.558   +32 00 32.24  .03664 1.0253 162.4 19.5 .560 172
2019 11 10 14  03 40 28.859   +32 33 46.61  .03658 1.0252 162.1 19.5 .601 171
2019 11 10 15  03 39 17.073   +33 07 04.08  .03653 1.0250 161.8 19.6 .643 170
2019 11 10 16  03 38 04.178   +33 40 24.12  .03649 1.0249 161.4 19.6 .686 170
2019 11 10 17  03 36 50.155   +34 13 46.16  .03644 1.0248 161.1 19.6 .730 169
2019 11 10 18  03 35 34.982   +34 47 09.64  .03641 1.0247 160.7 19.6 .775 168
2019 11 10 19  03 34 18.635   +35 20 34.01  .03637 1.0246 160.4 19.6 .821 168
2019 11 10 20  03 33 01.094   +35 53 58.68  .03634 1.0245 160.0 19.6 .868 167
2019 11 10 21  03 31 42.334   +36 27 23.06  .03632 1.0243 159.6 19.6 .916 167
2019 11 10 22  03 30 22.333   +37 00 46.58  .03630 1.0242 159.2 19.6 .965 166
2019 11 10 23  03 29 01.067   +37 34 08.63  .03628 1.0241 158.8 19.6 1.01 166
2019 11 11 00  03 27 38.512   +38 07 28.62  .03627 1.0240 158.3 19.6 1.06 165
2019 11 11 01  03 26 14.644   +38 40 45.94  .03626 1.0239 157.9 19.7 1.12 165
2019 11 11 02  03 24 49.437   +39 13 59.98  .03626 1.0237 157.5 19.7 1.17 165
2019 11 11 03  03 23 22.867   +39 47 10.15  .03626 1.0236 157.0 19.7 1.22 164
2019 11 11 04  03 21 54.908   +40 20 15.81  .03626 1.0235 156.5 19.7 1.27 164
2019 11 11 05  03 20 25.534   +40 53 16.37  .03627 1.0234 156.1 19.7 1.33 163
2019 11 11 06  03 18 54.718   +41 26 11.21  .03629 1.0233 155.6 19.7 1.38 163
2019 11 11 07  03 17 22.435   +41 58 59.71  .03630 1.0232 155.1 19.7 1.44 162